Time,TemperatureF,DewpointF,PressureIn,WindDirection,WindDirectionDegrees,WindSpeedMPH,WindSpeedGustMPH,Humidity,HourlyPrecipIn,Conditions,Clouds,dailyrainin,SolarRadiationWatts/m^2,SoftwareType,DateUTC
2013-07-02 00:22:00,74.0,48.0,30.01,WSW,245,1.0,4.0,40,-99.99,,,-99.99,0.000000,,2013-07-02 07:22:00,
2013-07-02 00:33:00,74.0,48.0,30.01,WSW,245,1.0,4.0,40,-99.99,,,-99.99,0.000000,,2013-07-02 07:33:00,
2013-07-02 00:40:00,79.0,47.0,30.00,West,260,0.0,2.0,32,-99.99,,,-99.99,0.000000,,2013-07-02 07:40:00,
2013-07-02 01:33:00,79.0,47.0,30.00,West,260,0.0,2.0,32,-99.99,,,-99.99,0.000000,,2013-07-02 08:33:00,
2013-07-02 02:33:00,82.0,43.0,30.00,SE,141,4.0,6.0,25,-99.99,,,-99.99,0.000000,,2013-07-02 09:33:00,
2013-07-02 03:22:00,83.0,41.0,29.99,SSE,168,4.0,5.0,22,-99.99,,,-99.99,0.000000,,2013-07-02 10:22:00,
2013-07-02 03:40:00,82.0,28.0,29.99,ENE,78,4.0,7.0,14,-99.99,,,-99.99,0.000000,,2013-07-02 10:40:00,
2013-07-02 04:22:00,82.0,28.0,29.99,ENE,78,4.0,7.0,14,-99.99,,,-99.99,0.000000,,2013-07-02 11:22:00,
2013-07-02 04:33:00,82.0,28.0,29.99,ENE,78,4.0,7.0,14,-99.99,,,-99.99,0.000000,,2013-07-02 11:33:00,
2013-07-02 05:33:00,83.0,40.0,29.99,SSE,156,6.0,8.0,22,-99.99,,,-99.99,0.000000,,2013-07-02 12:33:00,
2013-07-02 07:40:00,79.0,41.0,30.03,ESE,112,3.0,6.0,26,-99.99,,,-99.99,277.000000,,2013-07-02 14:40:00,
2013-07-02 08:22:00,79.0,41.0,30.03,ESE,112,3.0,6.0,26,-99.99,,,-99.99,277.000000,,2013-07-02 15:22:00,
2013-07-02 08:33:00,79.0,41.0,30.03,ESE,112,3.0,6.0,26,-99.99,,,-99.99,277.000000,,2013-07-02 15:33:00,
2013-07-02 08:40:00,82.0,42.0,30.04,SSE,161,3.0,7.0,24,-99.99,,,-99.99,485.000000,,2013-07-02 15:40:00,
2013-07-02 09:33:00,82.0,42.0,30.04,SSE,161,3.0,7.0,24,-99.99,,,-99.99,485.000000,,2013-07-02 16:33:00,
2013-07-02 09:40:00,84.0,46.0,30.05,SSE,168,3.0,6.0,27,-99.99,,,-99.99,701.000000,,2013-07-02 16:40:00,
2013-07-02 10:33:00,84.0,46.0,30.05,SSE,168,3.0,6.0,27,-99.99,,,-99.99,701.000000,,2013-07-02 17:33:00,
2013-07-02 10:40:00,80.0,48.0,30.06,SSE,168,8.0,16.0,32,-99.99,,,-99.99,887.000000,,2013-07-02 17:40:00,
2013-07-02 11:23:00,80.0,48.0,30.06,SSE,168,8.0,16.0,32,-99.99,,,-99.99,887.000000,,2013-07-02 18:23:00,
2013-07-02 11:34:00,80.0,48.0,30.06,SSE,168,8.0,16.0,32,-99.99,,,-99.99,887.000000,,2013-07-02 18:34:00,
2013-07-02 11:40:00,83.0,50.0,30.07,SSW,198,4.0,9.0,32,-99.99,,,-99.99,991.000000,,2013-07-02 18:40:00,
2013-07-02 12:34:00,83.0,50.0,30.07,SSW,198,4.0,9.0,32,-99.99,,,-99.99,991.000000,,2013-07-02 19:34:00,
2013-07-02 12:40:00,83.0,50.0,30.09,WNW,295,4.0,7.0,32,-99.99,,,-99.99,1022.000000,,2013-07-02 19:40:00,
2013-07-02 13:22:00,83.0,50.0,30.09,WNW,295,4.0,7.0,32,-99.99,,,-99.99,1022.000000,,2013-07-02 20:22:00,
2013-07-02 13:33:00,83.0,50.0,30.09,WNW,295,4.0,7.0,32,-99.99,,,-99.99,1022.000000,,2013-07-02 20:33:00,
2013-07-02 13:40:00,82.0,51.0,30.09,West,271,5.0,9.0,34,-99.99,,,-99.99,1012.000000,,2013-07-02 20:40:00,
2013-07-02 14:11:00,82.0,51.0,-100.00,West,271,5.0,9.0,34,-99.99,,,-99.99,1012.000000,,2013-07-02 21:11:00,
2013-07-02 14:22:00,82.0,51.0,-100.00,West,271,5.0,9.0,34,-99.99,,,-99.99,1012.000000,,2013-07-02 21:22:00,
2013-07-02 14:33:00,82.0,51.0,30.09,West,271,5.0,9.0,34,-99.99,,,-99.99,1012.000000,,2013-07-02 21:33:00,
2013-07-02 14:40:00,81.0,53.0,30.09,West,277,5.0,8.0,38,-99.99,,,-99.99,952.000000,,2013-07-02 21:40:00,
2013-07-02 15:22:00,81.0,53.0,30.09,West,277,5.0,8.0,38,-99.99,,,-99.99,952.000000,,2013-07-02 22:22:00,
2013-07-02 15:33:00,81.0,53.0,30.09,West,277,5.0,8.0,38,-99.99,,,-99.99,952.000000,,2013-07-02 22:33:00,
2013-07-02 15:40:00,84.0,54.0,30.09,West,278,2.0,5.0,35,-99.99,,,-99.99,844.000000,,2013-07-02 22:40:00,
2013-07-02 16:33:00,84.0,54.0,30.09,West,278,2.0,5.0,35,-99.99,,,-99.99,844.000000,,2013-07-02 23:33:00,
2013-07-02 16:40:00,80.0,54.0,30.08,WNW,288,2.0,5.0,40,-99.99,,,-99.99,694.000000,,2013-07-02 23:40:00,
2013-07-02 17:22:00,80.0,54.0,30.08,WNW,288,2.0,5.0,40,-99.99,,,-99.99,694.000000,,2013-07-03 00:22:00,
2013-07-02 17:33:00,80.0,54.0,30.08,WNW,288,2.0,5.0,40,-99.99,,,-99.99,694.000000,,2013-07-03 00:33:00,
2013-07-02 17:40:00,79.0,55.0,30.07,West,279,3.0,5.0,44,-99.99,,,-99.99,473.000000,,2013-07-03 00:40:00,
2013-07-02 18:33:00,79.0,55.0,30.07,West,279,3.0,5.0,44,-99.99,,,-99.99,473.000000,,2013-07-03 01:33:00,
2013-07-02 18:40:00,80.0,51.0,30.06,NW,306,2.0,4.0,37,-99.99,,,-99.99,291.000000,,2013-07-03 01:40:00,
2013-07-02 19:36:00,80.0,51.0,30.06,NW,306,2.0,4.0,37,-99.99,,,-99.99,291.000000,,2013-07-03 02:36:00,
2013-07-02 19:40:00,79.0,51.0,30.05,West,268,1.0,3.0,38,-99.99,,,-99.99,120.000000,,2013-07-03 02:40:00,
2013-07-02 20:35:00,79.0,51.0,30.05,West,268,1.0,3.0,38,-99.99,,,-99.99,120.000000,,2013-07-03 03:35:00,
2013-07-02 20:40:00,74.0,51.0,30.05,ESE,113,3.0,4.0,44,-99.99,,,-99.99,3.000000,,2013-07-03 03:40:00,
2013-07-02 21:33:00,74.0,51.0,30.05,ESE,113,3.0,4.0,44,-99.99,,,-99.99,3.000000,,2013-07-03 04:33:00,
2013-07-02 21:40:00,75.0,39.0,30.06,SSW,203,1.0,3.0,27,-99.99,,,-99.99,0.000000,,2013-07-03 04:40:00,
2013-07-02 22:23:00,75.0,39.0,30.06,SSW,203,1.0,3.0,27,-99.99,,,-99.99,0.000000,,2013-07-03 05:23:00,
2013-07-02 22:35:00,75.0,39.0,30.06,SSW,203,1.0,3.0,27,-99.99,,,-99.99,0.000000,,2013-07-03 05:35:00,
2013-07-02 23:24:00,75.0,45.0,30.06,NNE,23,2.0,5.0,34,-99.99,,,-99.99,0.000000,,2013-07-03 06:24:00,
2013-07-02 23:36:00,75.0,45.0,30.06,NNE,23,2.0,5.0,34,-99.99,,,-99.99,0.000000,,2013-07-03 06:36:00,
2013-07-02 23:40:00,78.0,42.0,30.05,ENE,78,2.0,7.0,28,-99.99,,,-99.99,0.000000,,2013-07-03 06:40:00,